Morris, MN

10:27 PM CDT on May 22, 2017 (GMT -0500)
Morris Municipal

Weather History for KMOX - February, 2013

Change the Weather History Date:

Monday, February 4, 2013

  Actual Average Record
Temperature  
Mean Temperature 5 °F -  
Max Temperature 17 °F 22 °F 44 °F (2005)
Min Temperature -7 °F 5 °F -22 °F (2004)
Degree Days  
Heating Degree Days 60    
Moisture  
Dew Point 3 °F    
Average Humidity 84    
Maximum Humidity 93    
Minimum Humidity 72    
Precipitation  
Precipitation 0.00 in - - ()
Sea Level Pressure  
Sea Level Pressure 29.89 in    
Wind  
Wind Speed 8 mph (South)    
Max Wind Speed 21 mph    
Max Gust Speed -    
Visibility 9 miles    
Events Snow    
Averages and records for this station are not official NWS values.
T = Trace of Precipitation, MM = Missing Value Source: NWS Daily Summary

Daily Weather History Graph

Daily Weather History Graph

Search for Another Location

Airport or City:

Trip Planner

Search our weather history database for the weather conditions in past years. The results will help you decide how hot, cold, wet, or windy it might be!

Date:

Astronomy

Feb. 04, 2013 Rise Set
Actual Time 7:41 AM CST 5:35 PM CST
Civil Twilight 7:09 AM CST 6:06 PM CST
Nautical Twilight 6:34 AM CST 6:41 PM CST
Astronomical Twilight 5:59 AM CST 7:16 PM CST
Moon 2:21 AM CST (2/4) 11:55 AM CST (2/4)
Length of Visible Light 10h 56m
Length of Day
9h 54m
Last Quarter, 37% of the Moon is Illuminated
Feb 4
Last Quarter
Feb 10
New
Feb 17
First Quarter
Feb 25
Full
Mar 4
Last Quarter

Hourly Weather History & Observations

Time (CST) Temp. Windchill Dew Point Humidity Pressure Visibility Wind Dir Wind Speed Gust Speed Precip Events Conditions
12:13 AM 8.6 °F -2.6 °F 3.2 °F 79% 29.97 in 7.0 mi North 6.9 mph - N/A Snow Light Snow
12:33 AM 6.8 °F -4.8 °F 3.2 °F 85% 29.97 in 10.0 mi North 6.9 mph - N/A Snow Light Snow
12:53 AM 6.8 °F -4.8 °F 3.2 °F 85% 29.97 in 10.0 mi North 6.9 mph - N/A   Overcast
1:13 AM 6.8 °F -5.9 °F 3.2 °F 85% 29.97 in 10.0 mi North 8.1 mph - N/A   Overcast
1:53 AM 6.8 °F -3.5 °F 3.2 °F 85% 29.98 in 10.0 mi North 5.8 mph - N/A   Overcast
2:13 AM 6.8 °F -3.5 °F 3.2 °F 85% 29.98 in 10.0 mi North 5.8 mph - N/A   Overcast
2:33 AM 6.8 °F -2.0 °F 3.2 °F 85% 29.99 in 10.0 mi NNW 4.6 mph - N/A   Overcast
2:53 AM 6.8 °F -3.5 °F 3.2 °F 85% 29.99 in 10.0 mi NNW 5.8 mph - N/A   Overcast
3:13 AM 6.8 °F -4.8 °F 1.4 °F 79% 29.99 in 10.0 mi North 6.9 mph - N/A   Overcast
5:13 AM -2.2 °F -14.2 °F -5.8 °F 85% 30.01 in 10.0 mi WNW 5.8 mph - N/A   Clear
5:33 AM -5.8 °F -19.9 °F -7.6 °F 92% 30.02 in 10.0 mi NW 6.9 mph - N/A   Clear
5:53 AM -5.8 °F -18.4 °F -7.6 °F 92% 30.01 in 10.0 mi NW 5.8 mph - N/A   Clear
6:13 AM -5.8 °F -18.4 °F -7.6 °F 92% 30.02 in 10.0 mi NNW 5.8 mph - N/A   Clear
6:33 AM -5.8 °F -16.7 °F -9.4 °F 84% 30.01 in 10.0 mi NW 4.6 mph - N/A   Scattered Clouds
6:53 AM -5.8 °F -16.7 °F -9.4 °F 84% 30.01 in 10.0 mi WNW 4.6 mph - N/A   Mostly Cloudy
7:13 AM -7.6 °F -20.6 °F -11.2 °F 84% 30.01 in 10.0 mi NW 5.8 mph - N/A   Scattered Clouds
7:53 AM -7.6 °F -18.8 °F -11.2 °F 84% 30.02 in 10.0 mi WNW 4.6 mph - N/A   Mostly Cloudy
8:13 AM -5.8 °F -14.5 °F -9.4 °F 84% 30.02 in 10.0 mi West 3.5 mph - N/A   Overcast
8:33 AM -2.2 °F - -7.6 °F 78% 30.02 in 10.0 mi Calm Calm - N/A   Overcast
8:53 AM -2.2 °F -10.4 °F -5.8 °F 85% 30.03 in 10.0 mi WNW 3.5 mph - N/A   Overcast
9:13 AM -0.4 °F - -5.8 °F 78% 30.02 in 10.0 mi Calm Calm - N/A   Overcast
9:33 AM -0.4 °F -8.3 °F -4.0 °F 85% 30.03 in 10.0 mi West 3.5 mph - N/A   Overcast
9:53 AM 1.4 °F - -2.2 °F 85% 30.01 in 10.0 mi Calm Calm - N/A   Overcast
10:13 AM 1.4 °F - -2.2 °F 85% 30.00 in 10.0 mi Calm Calm - N/A   Overcast
10:32 AM 3.2 °F - -2.2 °F 78% 29.99 in 10.0 mi Calm Calm - N/A   Overcast
10:53 AM 6.8 °F - -0.4 °F 72% 30.00 in 10.0 mi Calm Calm - N/A   Overcast
11:13 AM 6.8 °F - -0.4 °F 72% 30.00 in 10.0 mi Calm Calm - N/A   Overcast
11:33 AM 6.8 °F -3.5 °F 1.4 °F 79% 30.00 in 10.0 mi SSW 5.8 mph - N/A   Overcast
11:53 AM 6.8 °F -4.8 °F 1.4 °F 79% 29.99 in 10.0 mi SSW 6.9 mph - N/A   Overcast
12:33 PM 6.8 °F -10.7 °F 1.4 °F 79% 29.94 in 10.0 mi South 15.0 mph - N/A   Mostly Cloudy
12:53 PM 8.6 °F -11.0 °F 1.4 °F 73% 29.89 in 7.0 mi South 20.7 mph - N/A   Clear
1:13 PM 8.6 °F -8.3 °F 3.2 °F 79% 29.91 in 10.0 mi South 15.0 mph - N/A   Clear
1:32 PM 10.4 °F -3.3 °F 3.2 °F 73% 29.92 in 10.0 mi South 10.4 mph - N/A   Clear
1:53 PM 10.4 °F -0.4 °F 3.2 °F 73% 29.92 in 10.0 mi South 6.9 mph - N/A   Clear
2:13 PM 10.4 °F 2.2 °F 5.0 °F 79% 29.92 in 10.0 mi South 4.6 mph - N/A   Clear
2:33 PM 10.4 °F -0.4 °F 3.2 °F 73% 29.91 in 10.0 mi South 6.9 mph - N/A   Clear
2:53 PM 10.4 °F -0.4 °F 5.0 °F 79% 29.92 in 10.0 mi South 6.9 mph - N/A   Clear
3:13 PM 10.4 °F -2.4 °F 5.0 °F 79% 29.90 in 10.0 mi South 9.2 mph - N/A   Clear
3:33 PM 10.4 °F -3.3 °F 5.0 °F 79% 29.89 in 10.0 mi SSE 10.4 mph - N/A   Clear
3:53 PM 10.4 °F -3.3 °F 6.8 °F 85% 29.88 in 10.0 mi SSE 10.4 mph - N/A   Clear
4:13 PM 12.2 °F -1.8 °F 6.8 °F 79% 29.86 in 10.0 mi SSE 11.5 mph - N/A   Clear
4:33 PM 10.4 °F -4.8 °F 6.8 °F 85% 29.84 in 10.0 mi SSE 12.7 mph - N/A   Clear
4:52 PM 10.4 °F -4.1 °F 6.8 °F 85% 29.83 in 10.0 mi SSE 11.5 mph - N/A   Clear
5:13 PM 10.4 °F -5.4 °F 6.8 °F 85% 29.82 in 10.0 mi SSE 13.8 mph - N/A   Clear
5:33 PM 10.4 °F -6.0 °F 6.8 °F 85% 29.80 in 10.0 mi SSE 15.0 mph - N/A   Clear
5:53 PM 10.4 °F -4.8 °F 6.8 °F 85% 29.80 in 10.0 mi SSE 12.7 mph - N/A   Clear
6:13 PM 10.4 °F -4.8 °F 6.8 °F 85% 29.80 in 10.0 mi SSE 12.7 mph - N/A   Mostly Cloudy
6:33 PM 12.2 °F -3.1 °F 8.6 °F 85% 29.79 in 10.0 mi SSE 13.8 mph - N/A   Overcast
6:52 PM 12.2 °F -1.8 °F 8.6 °F 85% 29.79 in 5.0 mi SSE 11.5 mph - N/A Snow Light Snow
7:13 PM 12.2 °F -1.8 °F 8.6 °F 85% 29.78 in 4.0 mi SSE 11.5 mph - N/A Snow Light Snow
7:33 PM 12.2 °F -2.5 °F 8.6 °F 85% 29.77 in 2.0 mi SSE 12.7 mph - N/A Snow Light Snow
7:52 PM 12.2 °F -2.5 °F 10.4 °F 92% 29.76 in 2.0 mi SSE 12.7 mph - N/A Snow Light Snow
8:13 PM 12.2 °F -2.5 °F 10.4 °F 92% 29.75 in 3.0 mi SSE 12.7 mph - N/A Snow Light Snow
8:33 PM 14.0 °F -2.0 °F 10.4 °F 86% 29.73 in 1.8 mi SSE 16.1 mph - N/A Snow Light Snow
8:53 PM 15.8 °F 0.9 °F 12.2 °F 86% 29.70 in 5.0 mi SSE 15.0 mph - N/A Snow Light Snow
9:12 PM 15.8 °F 0.9 °F 12.2 °F 86% 29.69 in 7.0 mi SSE 15.0 mph - N/A   Overcast
9:33 PM 17.6 °F 1.7 °F 14.0 °F 86% 29.67 in 7.0 mi South 18.4 mph - N/A   Overcast
9:53 PM 17.6 °F 3.7 °F 15.8 °F 93% 29.67 in 7.0 mi South 13.8 mph - N/A   Mostly Cloudy
10:13 PM 17.6 °F 3.2 °F 15.8 °F 93% 29.66 in 7.0 mi SSE 15.0 mph - N/A   Scattered Clouds
10:33 PM 17.6 °F 5.0 °F 15.8 °F 93% 29.66 in 7.0 mi South 11.5 mph - N/A   Clear
10:53 PM 17.6 °F 5.0 °F 15.8 °F 93% 29.65 in 10.0 mi South 11.5 mph - N/A   Clear
11:13 PM 17.6 °F 5.0 °F 15.8 °F 93% 29.64 in 10.0 mi South 11.5 mph - N/A   Clear
11:33 PM 17.6 °F 5.0 °F 15.8 °F 93% 29.63 in 10.0 mi South 11.5 mph - N/A   Clear